IK5SRE Weather Reports


time (UTC)temp
C
wind
direction
speed
KPH
gust
KPH
rain 1hr
cm
rain 24hr
cm
rain mn
cm
humidity
%
barometer
mb
20260507064516 14 158 3.2 8.0 0.00 0.03 0.00 86 1014.4
20260507063516 14 158 1.6 6.4 0.00 0.05 0.00 85 1014.4
20260507062516 14 0.0 3.2 0.00 0.05 0.00 87 1014.3
20260507061516 13 180 1.6 4.8 0.00 0.05 0.00 86 1014.3
20260507060516 13 180 1.6 6.4 0.00 0.13 0.00 85 1014.2
20260507055516 13 0.0 3.2 0.00 0.33 0.00 86 1014.1
20260507054516 13 0.0 3.2 0.00 0.56 0.00 86 1014.0
20260507053516 12 0.0 3.2 0.00 0.71 0.00 86 1013.8
20260507052516 12 0 1.6 4.8 0.00 0.76 0.00 86 1013.8
20260507051516 12 0 1.6 6.4 0.00 0.89 0.00 86 1013.8
20260507050516 12 23 3.2 6.4 0.00 1.19 0.00 87 1013.7
20260507045516 11 0 1.6 4.8 0.00 1.52 0.00 88 1013.6
20260507044516 11 293 3.2 8.0 0.00 1.68 0.00 88 1013.4
20260507043515 11 0 3.2 9.7 0.00 1.93 0.00 88 1013.4
20260507042516 11 293 4.8 8.0 0.00 2.13 0.00 88 1013.4
20260507041515 11 293 3.2 6.4 0.00 2.39 0.00 87 1013.3
20260507040516 11 293 3.2 6.4 0.00 2.67 0.00 87 1013.3
20260507035516 11 23 1.6 8.0 0.00 2.77 0.00 87 1013.3
20260507034516 11 293 3.2 9.7 0.00 2.97 0.00 87 1013.3
20260507033536 11 293 1.6 4.8 0.00 3.07 0.00 87 1013.3
20260507032516 11 293 1.6 8.0 0.00 3.15 0.00 87 1013.2
20260507031516 11 293 3.2 8.0 0.00 3.30 0.00 88 1013.1
20260507030517 11 293 1.6 6.4 0.00 3.40 0.00 88 1013.1
20260507025516 11 0 1.6 6.4 0.00 3.66 0.00 87 1013.3
20260507024516 11 0 3.2 6.4 0.00 3.73 0.00 87 1013.4
20260507023516 11 23 1.6 8.0 0.00 4.06 0.00 87 1013.3
20260507022516 11 0.0 3.2 0.00 4.19 0.00 87 1013.3
20260507021516 11 293 3.2 6.4 0.00 4.22 0.00 87 1013.4
20260507020536 11 293 3.2 6.4 0.00 4.22 0.00 87 1013.3
20260507015536 11 293 3.2 8.0 0.00 4.22 0.00 87 1013.4
20260507014536 12 293 3.2 8.0 0.00 4.22 0.00 86 1013.1
20260507013515 12 293 3.2 8.0 0.00 4.22 0.00 86 1013.2
20260507012516 12 293 3.2 8.0 0.00 4.24 0.00 86 1013.3
20260507011516 12 23 3.2 6.4 0.00 4.32 0.00 86 1013.3
20260507010536 12 293 3.2 6.4 0.00 4.57 0.00 87 1013.4
20260507005515 12 293 1.6 6.4 0.00 4.75 0.00 87 1013.3
20260507004515 12 293 1.6 6.4 0.00 4.85 0.00 87 1013.3
20260507003536 12 293 3.2 8.0 0.00 4.88 0.00 87 1013.2
20260507002516 12 293 3.2 8.0 0.00 4.88 0.00 87 1013.3
20260507001516 12 293 3.2 8.0 0.00 4.98 0.00 86 1013.3
20260507000515 12 293 3.2 8.0 0.00 5.18 0.00 87 1013.4
20260506235515 12 23 3.2 6.4 0.00 5.28 0.00 87 1013.4
20260506234515 13 23 3.2 6.4 0.00 5.46 0.00 87 1013.4
20260506233536 13 23 3.2 8.0 0.00 5.49 0.00 87 1013.5
20260506232536 13 293 3.2 6.4 0.00 5.56 0.00 87 1013.4
20260506231516 13 0 3.2 8.0 0.00 5.69 0.00 86 1013.3
20260506230516 13 23 3.2 8.0 0.00 5.79 0.00 86 1013.3
20260506225516 13 23 1.6 9.7 0.00 5.84 0.00 85 1013.3
20260506224516 13 0 4.8 8.0 0.00 5.84 0.00 85 1013.2
20260506223517 13 293 3.2 8.0 0.00 5.84 0.00 85 1013.1
20260506222516 13 293 3.2 6.4 0.00 5.84 0.00 85 1013.2
20260506221516 13 293 3.2 8.0 0.00 5.84 0.00 84 1013.1
20260506220516 14 293 4.8 8.0 0.00 5.84 0.00 84 1013.1
20260506215516 14 293 1.6 6.4 0.00 5.84 5.84 83 1013.1
20260506214516 14 293 4.8 9.7 0.00 5.84 5.84 84 1013.0
20260506214016 14 293 6.4 11.3 0.00 5.84 5.84 84 1013.0
20260506213016 14 293 4.8 8.0 0.00 5.84 5.84 84 1013.0
20260506212016 14 293 3.2 9.7 0.00 5.84 5.84 85 1012.9
20260506211016 14 293 4.8 9.7 0.00 5.84 5.84 85 1012.9
20260506210016 14 293 1.6 6.4 0.00 5.87 5.84 85 1012.9
20260506205016 14 270 1.6 8.0 0.00 5.87 5.84 86 1012.7
20260506204016 15 293 1.6 8.0 0.00 5.87 5.84 86 1012.6
20260506203016 15 293 3.2 6.4 0.00 5.87 5.84 86 1012.6
20260506202036 15 293 3.2 8.0 0.00 5.87 5.84 86 1012.6
20260506201016 15 293 1.6 6.4 0.00 5.87 5.84 86 1012.6
20260506200016 15 293 3.2 6.4 0.00 5.87 5.84 86 1012.4
20260506195057 15 293 3.2 6.4 0.00 5.87 5.84 86 1012.2
20260506194017 15 293 3.2 6.4 0.00 5.87 5.84 87 1012.1
20260506193016 15 293 3.2 6.4 0.00 5.87 5.84 87 1012.0
20260506192037 15 293 1.6 6.4 0.00 5.97 5.84 87 1011.8
20260506191016 16 293 1.6 4.8 0.00 5.97 5.84 87 1011.7
20260506190116 16 0.0 3.2 0.00 5.97 5.84 87 1011.5
20260506185016 16 0.0 1.6 0.00 5.97 5.84 87 1011.3
20260506184016 16 0.0 0.0 0.00 5.97 5.84 86 1011.3
20260506183036 16 0.0 0.0 0.00 5.97 5.84 85 1011.1
20260506182016 16 0.0 0.0 0.00 5.97 5.84 84 1011.1
20260506181037 16 0.0 1.6 0.00 5.97 5.84 84 1011.0
20260506180016 17 0.0 3.2 0.00 5.97 5.84 83 1010.9
20260506175016 17 0.0 4.8 0.00 5.97 5.84 81 1010.7
20260506174016 17 0.0 8.0 0.00 5.97 5.84 81 1010.7
20260506173016 17 293 1.6 6.4 0.00 5.97 5.84 80 1010.6
20260506172036 17 0.0 1.6 0.00 5.97 5.84 80 1010.7
20260506171017 17 0.0 4.8 0.00 5.97 5.84 79 1010.8
20260506170017 17 0.0 1.6 0.00 5.97 5.84 80 1010.8
20260506165016 17 0.0 4.8 0.00 5.97 5.84 79 1010.8
20260506164016 17 270 1.6 8.0 0.00 5.97 5.84 78 1010.6
20260506163016 17 0 1.6 8.0 0.00 5.97 5.84 77 1010.7
20260506162016 18 293 1.6 6.4 0.00 5.97 5.84 75 1010.8
20260506161016 18 23 3.2 9.7 0.00 5.97 5.84 74 1010.7
20260506160116 18 293 4.8 14.5 0.00 5.97 5.84 70 1010.6
20260506155037 19 293 1.6 9.7 0.00 5.97 5.84 72 1010.7
20260506154016 19 293 1.6 8.0 0.00 5.97 5.84 71 1010.7
20260506153036 18 203 3.2 12.9 0.00 5.97 5.84 73 1010.7
20260506152036 19 270 3.2 9.7 0.00 5.97 5.84 72 1010.8
20260506151016 19 270 3.2 9.7 0.00 5.97 5.84 70 1010.8
20260506150016 19 270 4.8 14.5 0.00 5.97 5.84 70 1010.7
20260506145017 19 293 3.2 14.5 0.00 5.97 5.84 71 1010.6
20260506144016 19 293 4.8 8.0 0.00 5.97 5.84 72 1010.5
20260506143016 20 270 4.8 17.7 0.00 5.97 5.84 72 1010.4
20260506142036 20 23 3.2 9.7 0.00 5.97 5.84 76 1010.4
20260506141016 19 270 3.2 16.1 0.00 5.97 5.84 76 1010.6
20260506140036 20 248 4.8 14.5 0.00 5.97 5.84 76 1010.4
20260506135017 20 270 6.4 17.7 0.00 5.97 5.84 76 1010.5
20260506134017 19 293 6.4 14.5 0.00 5.97 5.84 78 1010.7
20260506133036 19 0 4.8 16.1 0.00 5.97 5.84 80 1010.7
20260506132037 18 180 1.6 6.4 0.00 6.02 5.84 81 1010.8
20260506131016 19 270 3.2 12.9 0.00 6.05 5.84 79 1010.8
20260506130016 20 293 3.2 11.3 0.00 6.05 5.84 79 1010.9
20260506125016 20 158 3.2 9.7 0.00 6.05 5.84 80 1010.8
20260506124016 19 293 4.8 11.3 0.00 6.10 5.84 82 1010.8
20260506123016 19 23 3.2 9.7 0.00 6.10 5.84 81 1010.7
20260506122016 18 293 4.8 11.3 0.00 6.10 5.84 82 1010.7
20260506121016 19 23 4.8 17.7 0.00 6.10 5.84 80 1010.6
20260506120016 18 23 4.8 11.3 0.00 6.10 5.84 80 1010.6
20260506115017 20 180 9.7 24.1 0.00 6.25 5.84 79 1010.4
20260506114036 20 180 9.7 19.3 0.00 6.38 5.84 78 1010.3
20260506113016 20 158 4.8 9.7 0.00 6.50 5.84 83 1010.3
20260506112016 19 180 6.4 19.3 0.00 6.50 5.84 84 1010.4
20260506111016 20 180 8.0 19.3 0.00 6.50 5.84 82 1010.4
20260506110016 20 180 6.4 12.9 0.00 6.53 5.84 82 1010.5
20260506105016 20 158 11.3 29.0 0.00 6.60 5.84 81 1010.2
20260506104016 20 180 11.3 24.1 0.00 6.63 5.84 83 1010.4
20260506103016 20 135 6.4 14.5 0.00 6.65 5.84 86 1010.5
20260506102016 19 180 9.7 19.3 0.00 6.65 5.84 86 1010.6
20260506101016 18 180 9.7 22.5 0.00 6.65 5.84 89 1010.7
20260506100017 18 180 1.6 9.7 0.00 6.81 5.84 92 1010.8
20260506095016 17 135 3.2 8.0 0.00 7.21 5.84 93 1010.7
20260506094016 17 158 4.8 11.3 0.00 7.32 5.84 94 1010.8
20260506093017 16 158 3.2 9.7 0.00 7.39 5.84 94 1010.7
20260506092036 16 135 3.2 11.3 0.00 7.39 5.84 94 1010.6
20260506091016 16 158 3.2 8.0 0.00 7.39 5.84 95 1010.6
20260506090017 16 0.0 3.2 0.00 7.44 5.84 95 1010.7
20260506085517 16 0.0 0.0 0.00 7.44 5.84 95 1010.7
20260506084516 16 0.0 0.0 0.00 7.52 5.84 95 1010.7
20260506083536 16 0.0 6.4 0.00 7.57 5.84 95 1010.7
20260506082516 16 0.0 3.2 0.00 7.57 5.84 95 1010.8
20260506081516 16 180 3.2 8.0 0.00 7.57 5.84 95 1010.7
20260506080517 16 0.0 3.2 0.00 7.57 5.84 95 1010.8
20260506073515 15 135 3.2 9.7 0.05 7.77 5.84 95 1010.7
20260506072516 15 0.0 0.0 0.05 7.87 5.84 95 1010.6
20260506071536 15 0.0 0.0 0.05 7.87 5.84 96 1010.6
20260506070516 15 0.0 0.0 0.13 7.87 5.84 96 1010.6